GW4974 Weather Reports


time (UTC)temp
F
wind
direction
speed
knots
gust
knots
rain 1hr
in
rain 24hr
in
rain mn
in
humidity
%
barometer
mb
20260504000248 53 222 0.9 1.7 0.00 0.00 0.00 43 1014.0
20260503235746 54 222 0.0 2.6 0.00 0.00 0.00 43 1014.3
20260503235243 54 52 0.0 1.7 0.00 0.00 0.00 43 1014.0
20260503234741 54 243 0.0 2.6 0.00 0.00 0.00 43 1014.1
20260503234239 55 215 1.7 3.5 0.00 0.00 0.00 42 1014.2
20260503233735 54 219 1.7 1.7 0.00 0.00 0.00 44 1014.1
20260503233231 55 229 1.7 2.6 0.00 0.00 0.00 40 1014.0
20260503232728 55 221 2.6 4.3 0.00 0.00 0.00 41 1013.8
20260503232226 55 261 2.6 2.6 0.00 0.00 0.00 42 1013.8
20260503231724 56 192 1.7 2.6 0.00 0.00 0.00 42 1013.8
20260503231220 56 220 0.9 3.5 0.00 0.00 0.00 41 1013.9
20260503230716 56 252 1.7 5.2 0.00 0.00 0.00 40 1014.0
20260503230214 56 231 0.0 2.6 0.00 0.00 0.00 40 1013.9
20260503225711 56 141 0.9 1.7 0.00 0.00 0.00 40 1013.9
20260503225211 55 232 0.9 2.6 0.00 0.00 0.00 39 1014.0
20260503224709 56 230 0.0 4.3 0.00 0.00 0.00 44 1013.8
20260503224207 56 254 1.7 6.1 0.00 0.00 0.00 39 1013.8
20260503223704 56 104 3.5 5.2 0.00 0.00 0.00 39 1013.8
20260503223201 56 243 2.6 4.3 0.00 0.00 0.00 40 1013.8
20260503222658 57 248 1.7 4.3 0.00 0.00 0.00 38 1013.9
20260503222155 57 263 1.7 5.2 0.00 0.00 0.00 39 1013.9
20260503221654 57 238 0.9 5.2 0.00 0.00 0.00 41 1013.8
20260503221150 57 214 0.0 3.5 0.00 0.00 0.00 39 1013.9
20260503220647 57 225 3.5 3.5 0.00 0.00 0.00 39 1013.9
20260503220143 57 285 0.9 1.7 0.00 0.00 0.00 39 1014.0
20260503215641 57 130 2.6 3.5 0.00 0.00 0.00 38 1013.8
20260503215137 57 282 0.0 4.3 0.00 0.00 0.00 38 1013.9
20260503214637 56 180 2.6 8.7 0.00 0.00 0.00 38 1013.7
20260503214132 56 238 2.6 3.5 0.00 0.00 0.00 36 1013.9
20260503213632 57 238 1.7 5.2 0.00 0.00 0.00 38 1013.9
20260503213128 57 262 2.6 3.5 0.00 0.00 0.00 39 1014.0
20260503212625 57 256 3.5 4.3 0.00 0.00 0.00 37 1013.7
20260503212122 57 116 0.0 4.3 0.00 0.00 0.00 37 1013.8
20260503211620 57 55 1.7 4.3 0.00 0.00 0.00 38 1013.9
20260503211115 57 266 1.7 5.2 0.00 0.00 0.00 37 1013.8
20260503210612 57 242 1.7 3.5 0.00 0.00 0.00 40 1013.8
20260503210109 57 232 0.0 3.5 0.00 0.00 0.00 42 1013.8
20260503205605 57 229 3.5 4.3 0.00 0.00 0.00 37 1013.8
20260503205101 58 228 2.6 5.2 0.00 0.00 0.00 37 1013.7
20260503204558 61 239 3.5 5.2 0.00 0.00 0.00 34 1013.8
20260503204055 59 75 0.9 2.6 0.00 0.00 0.00 36 1013.9
20260503203552 57 225 3.5 5.2 0.00 0.00 0.00 37 1014.1
20260503203049 57 229 1.7 3.5 0.00 0.00 0.00 38 1013.8
20260503202547 57 256 3.5 5.2 0.00 0.00 0.00 38 1013.7
20260503202045 59 235 1.7 7.0 0.00 0.00 0.00 33 1014.0
20260503201543 59 245 3.5 3.5 0.00 0.00 0.00 37 1014.1
20260503201040 59 230 1.7 7.0 0.00 0.00 0.00 36 1014.1
20260503200536 59 226 1.7 4.3 0.00 0.00 0.00 36 1013.9
20260503200033 57 170 0.0 2.6 0.00 0.00 0.00 37 1014.0
20260503195530 57 244 7.0 7.8 0.00 0.00 0.00 36 1014.2
20260503195027 58 146 0.9 3.5 0.00 0.00 0.00 36 1014.1
20260503194524 57 151 0.9 4.3 0.00 0.00 0.00 35 1014.3
20260503194024 58 121 2.6 4.3 0.00 0.00 0.00 38 1014.4
20260503193521 59 177 1.7 4.3 0.00 0.00 0.00 38 1014.3
20260503193016 59 111 3.5 4.3 0.00 0.00 0.00 36 1014.5
20260503192512 57 232 2.6 2.6 0.00 0.00 0.00 37 1014.3
20260503192008 57 228 1.7 4.3 0.00 0.00 0.00 37 1014.6
20260503191505 58 213 4.3 5.2 0.00 0.00 0.00 34 1014.7
20260503191002 57 266 1.7 5.2 0.00 0.00 0.00 35 1014.7
20260503190459 57 256 2.6 4.3 0.00 0.00 0.00 38 1014.8
20260503185956 57 126 1.7 2.6 0.00 0.00 0.00 37 1014.7
20260503185452 57 115 3.5 3.5 0.00 0.00 0.00 39 1015.0
20260503184952 56 238 1.7 3.5 0.00 0.00 0.00 37 1015.0
20260503184448 57 268 3.5 7.0 0.00 0.00 0.00 36 1015.1
20260503183944 57 260 2.6 4.3 0.00 0.00 0.00 39 1015.0
20260503183441 59 232 2.6 6.1 0.00 0.00 0.00 35 1015.2
20260503182938 57 224 0.9 6.1 0.00 0.00 0.00 36 1015.1
20260503182437 57 265 3.5 3.5 0.00 0.00 0.00 38 1015.1
20260503181934 57 286 0.0 3.5 0.00 0.00 0.00 38 1015.2
20260503181431 58 220 2.6 5.2 0.00 0.00 0.00 38 1015.3
20260503180927 58 289 1.7 5.2 0.00 0.00 0.00 36 1015.3
20260503180427 57 100 0.0 6.1 0.00 0.00 0.00 38 1015.2
20260503175922 56 257 0.0 4.3 0.00 0.00 0.00 42 1015.2
20260503175421 57 116 1.7 2.6 0.00 0.00 0.00 38 1015.3
20260503174916 56 230 0.9 5.2 0.00 0.00 0.00 37 1015.3
20260503174415 59 125 1.7 3.5 0.00 0.00 0.00 39 1015.4
20260503173914 57 265 4.3 5.2 0.00 0.00 0.00 36 1015.4
20260503173411 56 214 2.6 2.6 0.00 0.00 0.00 40 1015.5
20260503172908 56 156 1.7 3.5 0.00 0.00 0.00 36 1015.3
20260503172405 56 81 4.3 4.3 0.00 0.00 0.00 37 1015.5
20260503171901 56 258 1.7 5.2 0.00 0.00 0.00 38 1015.5
20260503171358 58 273 1.7 5.2 0.00 0.00 0.00 39 1015.5
20260503170855 58 246 3.5 5.2 0.00 0.00 0.00 37 1015.6
20260503170352 58 12 2.6 3.5 0.00 0.00 0.00 39 1015.4
20260503150744 49 264 2.6 3.5 0.00 0.00 0.00 44 1017.0
20260503150240 48 245 0.0 7.0 0.00 0.00 0.00 45 1016.8
20260503140204 49 205 1.7 2.6 0.00 0.00 0.00 45 1016.9
20260503131134 44 44 0.9 2.6 0.00 0.00 0.00 60 1017.3
20260503130632 43 136 1.7 2.6 0.00 0.00 0.00 61 1017.4
20260503130129 43 235 1.7 3.5 0.00 0.00 0.00 62 1017.5
20260503110516 36 220 0.0 4.3 0.00 0.00 0.00 76 1016.7
20260503090401 36 245 0.9 1.7 0.00 0.00 0.00 73 1015.8
20260503081328 35 276 1.7 1.7 0.00 0.00 0.00 73 1015.4
20260503080825 36 239 1.7 1.7 0.00 0.00 0.00 73 1015.5
20260503080322 36 220 0.9 2.6 0.00 0.00 0.00 73 1015.5
20260503072753 38 220 0.0 1.7 0.00 0.00 0.00 69 1015.4
20260503072250 38 324 0.9 1.7 0.00 0.00 0.00 68 1015.5
20260503071746 38 107 0.0 2.6 0.00 0.00 0.00 67 1015.4
20260503071243 38 173 0.0 2.6 0.00 0.00 0.00 68 1015.4
20260503070739 38 154 0.9 3.5 0.00 0.00 0.00 68 1015.3
20260503070237 38 98 1.7 1.7 0.00 0.00 0.00 68 1015.3
20260503060202 38 171 0.0 1.7 0.00 0.00 0.00 67 1015.4
20260503054649 39 185 0.9 1.7 0.00 0.00 0.00 64 1015.3
20260503054146 39 356 0.0 2.6 0.00 0.00 0.00 63 1015.3
20260503053644 39 118 2.6 2.6 0.00 0.00 0.00 64 1015.4
20260503053143 39 115 1.7 2.6 0.00 0.00 0.00 64 1015.4
20260503052639 40 255 0.9 1.7 0.00 0.00 0.00 66 1015.6
20260503052135 40 246 1.7 1.7 0.00 0.00 0.00 64 1015.5
20260503051630 40 105 0.0 1.7 0.00 0.00 0.00 63 1015.5
20260503051129 40 87 1.7 2.6 0.00 0.00 0.00 61 1015.6
20260503050625 40 220 0.0 1.7 0.00 0.00 0.00 63 1015.6
20260503050122 40 62 0.0 1.7 0.00 0.00 0.00 63 1015.6
20260503045619 41 232 1.7 2.6 0.00 0.00 0.00 63 1015.5
20260503045116 41 136 1.7 3.5 0.00 0.00 0.00 63 1015.7
20260503044613 41 255 1.7 1.7 0.00 0.00 0.00 60 1015.4
20260503044111 41 149 0.9 1.7 0.00 0.00 0.00 64 1015.6
20260503043607 41 96 0.0 1.7 0.00 0.00 0.00 60 1015.6
20260503043104 41 233 0.0 1.7 0.00 0.00 0.00 62 1015.7
20260503042600 41 146 0.0 1.7 0.00 0.00 0.00 63 1015.7
20260503042056 41 250 0.0 2.6 0.00 0.00 0.00 61 1015.7
20260503041553 41 210 0.9 1.7 0.00 0.00 0.00 59 1015.7
20260503041051 41 228 1.7 1.7 0.00 0.00 0.00 59 1015.8
20260503040548 41 222 1.7 3.5 0.00 0.00 0.00 59 1015.7
20260503040045 42 262 1.7 3.5 0.00 0.04 0.04 62 1015.9
20260503035542 42 284 1.7 3.5 0.00 0.04 0.04 61 1015.8
20260503035040 42 234 0.9 2.6 0.00 0.04 0.04 59 1015.8
20260503034537 42 79 0.9 1.7 0.00 0.04 0.04 57 1015.8
20260503034034 42 121 1.7 3.5 0.00 0.04 0.04 56 1015.9
20260503033531 42 131 0.9 1.7 0.00 0.04 0.04 57 1015.9
20260503033029 42 100 2.6 2.6 0.00 0.04 0.04 58 1016.0
20260503032527 42 123 1.7 4.3 0.00 0.04 0.04 59 1015.9
20260503032025 42 283 0.0 3.5 0.00 0.04 0.04 63 1016.1
20260503031522 42 115 1.7 3.5 0.00 0.04 0.04 61 1015.9
20260503031019 42 147 1.7 2.6 0.00 0.04 0.04 62 1015.9
20260503030515 42 104 0.9 2.6 0.00 0.04 0.04 66 1015.9
20260503030013 42 291 0.9 1.7 0.00 0.04 0.04 72 1016.0
20260503025509 42 224 1.7 3.5 0.00 0.04 0.04 72 1015.9
20260503025007 42 222 0.0 1.7 0.00 0.04 0.04 70 1016.1
20260503024503 42 131 2.6 2.6 0.00 0.04 0.04 73 1016.1
20260503024000 42 294 1.7 1.7 0.00 0.04 0.04 70 1016.0
20260503023457 42 108 1.7 2.6 0.00 0.04 0.04 70 1016.1
20260503022954 42 197 0.0 2.6 0.00 0.04 0.04 71 1016.1
20260503022449 42 189 1.7 3.5 0.00 0.04 0.04 74 1016.1
20260503021945 42 265 0.9 2.6 0.00 0.04 0.04 75 1016.0
20260503021442 42 249 0.9 2.6 0.00 0.04 0.04 74 1016.2
20260503020939 42 286 0.9 1.7 0.00 0.04 0.04 74 1016.1
20260503020437 42 154 0.0 0.0 0.00 0.04 0.04 71 1016.0
20260503015933 43 290 0.0 1.7 0.00 0.04 0.04 69 1016.0
20260503015430 43 153 0.0 1.7 0.00 0.04 0.04 68 1016.0
20260503014926 43 130 0.0 1.7 0.00 0.04 0.04 70 1016.0
20260503014423 42 117 0.0 1.7 0.00 0.04 0.04 74 1016.0
20260503013921 42 245 0.9 1.7 0.00 0.04 0.04 74 1016.0
20260503013418 43 263 0.9 0.9 0.00 0.04 0.04 74 1016.1
20260503012915 43 218 0.0 2.6 0.00 0.04 0.04 71 1015.9
20260503012413 43 89 0.0 2.6 0.00 0.04 0.04 70 1016.0
20260503011909 43 256 0.0 1.7 0.00 0.04 0.04 71 1015.9
20260503011406 43 240 0.0 1.7 0.00 0.04 0.04 73 1015.9
20260503010903 43 254 0.0 1.7 0.00 0.04 0.04 71 1015.9
20260503010359 43 230 1.7 1.7 0.00 0.04 0.04 73 1015.8
20260503005856 43 226 0.0 1.7 0.00 0.04 0.04 71 1015.7
20260503005354 43 234 0.9 1.7 0.00 0.04 0.04 71 1015.6
20260503004850 43 231 1.7 2.6 0.00 0.04 0.04 72 1015.6
20260503004348 43 238 0.9 1.7 0.00 0.04 0.04 73 1015.5
20260503003845 43 244 1.7 1.7 0.00 0.04 0.04 72 1015.5
20260503003342 43 211 0.0 1.7 0.00 0.04 0.04 72 1015.4
20260503002838 43 224 0.0 1.7 0.00 0.04 0.04 74 1015.4
20260503002336 43 147 0.0 1.7 0.00 0.04 0.04 73 1015.4
20260503001832 43 233 0.0 0.9 0.00 0.04 0.04 72 1015.5
20260503001328 43 225 0.9 1.7 0.00 0.04 0.04 72 1015.5
20260503000826 44 242 0.0 1.7 0.00 0.04 0.04 73 1015.4